Showing default

PREFIRE-2, 59881

Orbit data source: Space-Track

PREFIRE-2, 59881 is a payload satellite owned by JPL (US) in SSO that was launched on Sat, 25 May 2024 UTC via an ELECTRON launch vehicle from the Rocket Lab Launch Complex (RLLC). Payload-class satellites include a variety of spacecraft equipped with specific instruments for various scientific and technological missions. These include communications satellites like Starlink; space stations such as the ISS; scientific satellites like the Hubble; Earth observation satellites from companies like Planet Labs, Umbra, and HawkEye 360; GPS; miniature CubeSats for education and research; and military/defense satellites.

Loading next visibility...
Identifier
59881, 2024-099A
Orbit
SSO
Last TLE update
8 hours ago
Origin
Manufacturer
JPL
Mission
Operational spacecraft
Bus & Motor
CUBESAT 6U, Unknown motor
Mass
~10 kg wet, ~10 kg dry
Launch date (UTC)
2024-05-25 (1 year ago)
Launch vehicle
ELECTRON
Launch site
Rocket Lab Launch Complex (RLLC)
Object type
Payload
Rocket body
Debris
Shape & HBR
Unknown
Radar Cross Section
Medium (>0.1 m² and <1 m²)

Expand to show TLE details & history

TLE from 8 hours ago
0 PREFIRE-2
1 59881U 24099A   25186.58753589  .00002761  00000-0  14026-3 0  9999
2 59881  97.4498  43.4397 0012470 343.5254  16.5573 15.17653852 61506
Epoch: 2025-07-05T14:06Z
TLE epoch observation values (Epoch: 2025-07-05T14:06:03.1Z)
Latitude
-0.00002°
Longitude
-91.89665°
Altitude
507.782 km
Speed
7.615 km/s
True Right ascension
02h 53m 45s
True Declination
0° 00' 00"
Sunlit
Object was in daylight at epoch
Visualization orbit readout
Latitude
56.90914°
Longitude
99.96069°
Altitude
529.094 km
Speed
7.6 km/s
Apparent Right ascension
19h 41m 24s
Apparent Declination
17° 01' 17"
Sunlit
Object is in daylight
Visualization observer readout
Local Sidereal Time
10:29:13
Azimuth
43.196° NE
Elevation
-20.952°
Doppler factor
1
Orbital elements
Apogee altitude
518.494 km
Perigee altitude
501.315 km
Semi-major axis
6,888.041 km
Eccentricity
0.00125
Inclination
97.4498°
RAAN
43.4397°
Arg. of periapsis
343.5254°
True anomaly
Unknown
Mean anomaly
16.5573°
Eccentric anomaly
Unknown
Mean motion
3.79664 °/min
Orbital period
94.82 mins
BSTAR
0.00014026
Loading maneuver chart data...
Loading SW <> Apogee altitude chart data...
Loading historical data...
Loading historical data...
Loading historical data...
Loading historical data...
Loading historical data...
Loading historical data...
Loading historical data...
Other satellites on launch #99 in the year 2024 (2024-05-25 UTC)

PREFIRE-2 Visibility forecast

Observer location: undefined°, undefined°

Span
Click to sort rows by Start time (UTC) header in descending order
Start Az.
Max El. time (UTC)
Max El. Az.
Max El.
End time (UTC)
End Az.
7 mins2025-07-06 03:19:00.952Z13.012° NNE2025-07-06 03:22:00.952Z23.2° NE43.22°2025-07-06 03:26:00.952Z191.614° SSW
5 mins2025-07-06 13:59:00.952Z126.273° SE2025-07-06 14:01:00.952Z79.403° E28.189°2025-07-06 14:04:00.952Z11.941° NNE
|